Flag for Germany Weather past 2 weeks in Kerpen, North Rhine-Westphalia, Germany

Now
48 °F

Light rain. Fog.


Feels Like: 44 °F
Forecast: 34 / 53 °F
Wind: 9 mph from Northwest

Location: Noervenich

Current Time: Apr 27, 2015 at 7:37:54 AM

Latest Report: Apr 27, 2015 at 6:54 AM


Visibility: 2 mi

Pressure: 29.65 "Hg

Humidity: 94%

Dew point: 46 °F

Location of KerpenLocation

Historic Weather in Kerpen — Graph

°F

Kerpen temperature yesterday

Maximum temperature yesterday: 61 °F (at 12:20 PM)
Minimum temperature yesterday: 50 °F (at 7:20 AM)
Average temperature yesterday: 56 °F

Past Weeks' High & Low Weather Summary

 TemperatureHumidityPressure
High75 °F (Apr 15, 2:20 PM)100% (Apr 23, 6:01 AM)30.48 "Hg (Apr 23, 6:01 AM)
Low34 °F (Apr 19, 6:20 AM)27% (Apr 24, 3:20 PM)29.62 "Hg (Apr 27, 1:20 AM)
Average53 °F64%30.13 "Hg
* Reported Apr 12 6:20 AM — Apr 27 6:20 AM, Kerpen, Weather by CustomWeather, © 2015

Note: Actual official high and low records may vary slightly from our data, if they occured in-between our weather recording intervals... More about our weather records

Advertising

Kerpen weather history for previous 24 hours

 ConditionsComfort  
Time TempWeatherWind HumidityBarometerVisibility
6:20 AM
Mon, Apr 27
48 °FLight rain. Fog.7 mph100%29.62 "Hg2 mi
5:20 AM50 °FLight rain. Fog.7 mph100%29.62 "Hg2 mi
4:20 AM52 °FLight rain. Fog.7 mph94%29.62 "Hg2 mi
3:20 AM52 °FLight rain. Fog.7 mph100%29.62 "Hg2 mi
2:20 AM54 °FRain. Fog.3 mph94%29.62 "Hg1 mi
1:20 AM54 °FRain. Fog.1 mph94%29.62 "Hg2 mi
12:50 AM54 °FRain. Fog.1 mph94%29.65 "Hg2 mi
12:20 AM54 °FRain. Fog.1 mph94%29.65 "Hg3 mi
11:20 PM
Sun, Apr 26
54 °FLight rain. Mostly cloudy.No wind94%29.65 "Hg4 mi
10:20 PM54 °FLight rain. Mostly cloudy.1 mph100%29.68 "Hg5 mi
9:20 PM54 °FBroken clouds.No wind100%29.68 "HgN/A
8:20 PM55 °FPartly sunny.1 mph94%29.68 "HgN/A
7:20 PM55 °FBroken clouds.No wind88%29.68 "HgN/A
6:20 PM57 °FSprinkles. Broken clouds.1 mph82%29.68 "Hg4 mi
5:56 PM59 °FRain showers. Broken clouds.1 mph72%29.68 "Hg2 mi
5:20 PM61 °FBroken clouds.3 mph72%29.68 "HgN/A
4:20 PM61 °FBroken clouds.5 mph68%29.68 "HgN/A
3:20 PM61 °FBroken clouds.9 mph68%29.71 "HgN/A
2:20 PM61 °FBroken clouds.6 mph77%29.71 "HgN/A
1:20 PM57 °FSprinkles. Broken clouds.8 mph88%29.74 "Hg6 mi
12:20 PM61 °FBroken clouds.2 mph77%29.74 "HgN/A
11:20 AM59 °FCool.5 mph77%29.74 "HgN/A
10:20 AM59 °FCool.7 mph77%29.74 "HgN/A
9:20 AM57 °FCool.5 mph82%29.74 "HgN/A
8:20 AM54 °FCool.1 mph94%29.77 "HgN/A
7:20 AM50 °FCool.1 mph94%29.74 "Hg5 mi
Weather by CustomWeather, © 2015

See weather overviewHow to use our weather pages